Regional Weather Roundup
Issued by NWS

Home | Current Version | Previous Version | Text Only | Print | Product List | Glossary On
Versions: 1 2 3 4 5 6 7 8 9 10 11 12 13 14 15 16 17 18 19 20 21 22 23 24 25 26 27 28 29 30 31 32 33 34 35 36 37 38 39 40 41 42 43 44 45 46 47 48 49 50
000
ASUS43 KLOT 042308
RWRIL

ILLINOIS REGIONAL WEATHER ROUNDUP
NATIONAL WEATHER SERVICE CHICAGO/ROMEOVILLE IL
600 PM CDT WED MAY 04 2016

NOTE: "FAIR" INDICATES FEW OR NO CLOUDS BELOW 12,000 FEET WITH NO
SIGNIFICANT WEATHER AND/OR OBSTRUCTIONS TO VISIBILITY.

* THESE STATIONS ARE NOT UNDER NWS QUALITY CONTROL. THEY ALSO MAY NOT
  REPORT WEATHER SUCH AS PRECIPITATION OR FOG.

ILZ001-002-007-009-015-016-024-050000-
NORTHWEST ILLINOIS

CITY           SKY/WX    TMP DP  RH WIND       PRES   REMARKS
MOLINE         MOSUNNY   62  32  32 N14       29.84R
STERLING*      CLOUDY    61  36  39 N12       29.84R
SAVANNA*       PTSUNNY   62  32  32 NW14G21   29.84R
$$

ILZ003-004-008-010-011-017-018-050000-
NORTH CENTRAL ILLINOIS

CITY           SKY/WX    TMP DP  RH WIND       PRES   REMARKS
ROCKFORD       PTSUNNY   58  34  40 N17G23    29.84R
FREEPORT*      CLOUDY    59  33  38 N14       29.84S
ROCHELLE*      CLOUDY    55  38  53 N9        29.83R
DE KALB*       CLOUDY    54  40  59 N9        29.83R
$$

ILZ005-006-012>014-019>023-050000-
NORTHEAST ILLINOIS

CITY           SKY/WX    TMP DP  RH WIND       PRES   REMARKS
CHICAGO-OHARE  CLOUDY    49  38  65 NE12      29.82R
CHICAGO-MIDWAY CLOUDY    49  36  61 NE10      29.83R
AURORA         CLOUDY    55  40  56 NW18      29.82R
LANSING*       CLOUDY    45  36  70 N12       29.83S
JOLIET*        CLOUDY    54  39  58 N8        29.83R
WAUKEGAN       CLOUDY    44  37  76 N16G23    29.83R
DUPAGE AIRPORT CLOUDY    53  37  54 N12       29.81R
KANKAKEE*      CLOUDY    47  39  72 NE8       29.84R
WHEELING       CLOUDY    46  37  71 NE13      29.84R
MORRIS*        CLOUDY    55  41  58 N6        29.81S
ROMEOVILLE*    CLOUDY    51  38  60 N8        29.82S
NORTHERLY ISL    N/A     44  36  73 N13         N/A
NORTHERLY ISL    N/A     44  36  73 N13         N/A
$$

LMZ740>746-050000-
SOUTHERN LAKE MICHIGAN

STATION/POSITION SKY/WX   TEMP    WIND        PRES    VSBY  WAVE
                          AIR SEA DIR/SP/G                  HT/PER
                          (F)     (DEG/KT/KT) (MB)    (MI)  (FT/S)
SOUTHERN BUOY              42 40   10/ 23/ 29 1008.5R         8/ 8
WILMETTE HARBOR            42 44   30/ 12/ 16   N/A           5/ 7
HARRISON CRIB              44     350/ 14/ 16   N/A
BURNHAM HARBOR             44     340/ 13/ 16   N/A
CALUMET HARBOR             44                 1009.6R
BURNS HARBOR               44     360/ 14/ 21 1009.8R
MICHIGAN CITY              43     340/ 22/ 24   N/A
ST. JOSEPH                 42 47                N/A          10/ 8
$$

ILZ025>027-034>036-040-047-049-050-058-095>099-050000-
WEST-CENTRAL ILLINOIS

CITY           SKY/WX    TMP DP  RH WIND       PRES   REMARKS
QUINCY         SUNNY     62  35  36 NW20G28   29.89R
GALESBURG*     PTSUNNY   61  33  34 NW20G29   29.86R
MACOMB*        PTSUNNY   64  33  31 NW20G32   29.88S
JACKSONVILLE*  PTSUNNY   62  33  33 NW16      29.85F
PITTSFIELD*    MOSUNNY   62  38  40 NW16      29.89R
$$

ILZ028>032-037-038-041>044-048-051>054-059>061-050000-
CENTRAL ILLINOIS

CITY           SKY/WX    TMP DP  RH WIND       PRES   REMARKS
PONTIAC        CLOUDY    57  43  58 NW10      29.83S
BLOOMINGTON    CLOUDY    55  42  61 N12       29.84S
DECATUR        CLOUDY    57  40  52 N14       29.84S
PEORIA         PTSUNNY   61  33  35 NW12G24   29.84S
LACON*         CLOUDY    58  37  44 N9        29.83R
LINCOLN*       MOSUNNY   60  40  48 N8        29.84F
SPRINGFIELD    MOSUNNY   63  37  38 N18G24    29.85S
TAYLORVILLE    CLOUDY    58  39  49 N16       29.85S
$$

ILZ033-039-045-046-055>057-062-063-050000-
EAST-CENTRAL ILLINOIS

CITY           SKY/WX    TMP DP  RH WIND       PRES   REMARKS
CHAMPAIGN      CLOUDY    54  41  61 NW15      29.83R
RANTOUL*       CLOUDY    56  42  57 N12       29.82S
MATTOON        LGT RAIN  50  43  77 N13       29.83R
PARIS*         PTSUNNY   54  41  60 N9        29.82S
$$

ILZ079-100>102-050000-
SOUTHWEST ILLINOIS

CITY           SKY/WX    TMP DP  RH WIND       PRES   REMARKS
ALTON          MOSUNNY   63  36  36 N17       29.86R
BELLEVILLE     SUNNY     64  40  40 N9G22     29.83R
CAHOKIA*       MOSUNNY   64  36  35 N16G28    29.85R
SPARTA*        PTSUNNY   64  42  45 N15G21    29.84R
$$

ILZ064>066-069>071-074>076-080>082-084>086-088>090-092>094-050000-
SOUTH-CENTRAL ILLINOIS

CITY           SKY/WX    TMP DP  RH WIND       PRES   REMARKS
CARBONDALE     SUNNY     64  43  46 N12G23    29.82R
CAIRO*         SUNNY     68  43  41 N20       29.80R
EFFINGHAM*     CLOUDY    57  42  56 NW15G22   29.85R
MARION         PTSUNNY   63  41  45 N15G24    29.82R
MT. VERNON     PTSUNNY   61  39  44 N12G18    29.84R
CENTRALIA*     PTSUNNY   60  44  55 N18G25    29.83R
SALEM*         PTSUNNY   61  41  47 N16G22    29.84R
METROPOLIS*    MOSUNNY   66  45  47 NW15G21   29.81R
$$

ILZ067-068-072-073-078-083-087-091-050000-
SOUTHEAST ILLINOIS

CITY           SKY/WX    TMP DP  RH WIND       PRES   REMARKS
LAWRENCEVILLE  PTSUNNY   58  41  53 N25G35    29.80R
FLORA*         PTSUNNY   62  38  42 N16G26    29.83R
FAIRFIELD*     PTSUNNY   60  40  48 N15G25    29.81R
HARRISBURG*    LGT RAIN  59  47  65 N6        29.82R
ROBINSON*      PTSUNNY   55  40  57 N20G29    29.82R
CARMI*         PTSUNNY   58  46  63 N16G23    29.80S
$$

ABBREVIATIONS USED IN REMARKS
   TC - TEMPERATURE IN CELSIUS
  WCI - WIND CHILL INDEX
   HX - HEAT INDEX
  VSB - VISIBILITY
$$





USA.gov is the U.S. government's official web portal to all federal, state and local government web resources and services.